Orbital Elements at Epoch 2459200.5 (2020-Dec-17.0) TDB
Reference: JPL 15 (heliocentric ecliptic J2000)
Element | Value | Uncertainty (1-sigma) | Units |
e | .1616151227812463 | 6.3564e-08 | |
a | 2.582965255258232 | 2.1564e-08 | au |
q | 2.16551900838998 | 1.7588e-07 | au |
i | 3.299614724271767 | 4.3167e-06 | deg |
node | 123.0531683163706 | 0.00010252 | deg |
peri | 280.0781062720042 | 0.00010429 | deg |
M | 245.1900976913065 | 2.335e-05 | deg |
tp | 2459684.063063135886 (2022-Apr-14.56306314) | 0.00010317 | TDB |
period | 1516.269060667401 4.15 | 1.8988e-05 5.199e-08 | d yr |
n | .2374248801472889 | 2.9733e-09 | deg/d |
Q | 3.000411502126485 | 2.505e-08 | au |
|
| | Orbit Determination Parameters
Additional Information
|